Regional Weather Roundup
Issued by NWS Northern Indiana

Home | Current Version | Previous Version | Graphics & Text | Print | Product List | Glossary On
Versions: 1 2 3 4 5 6 7 8 9 10 11 12 13 14 15 16 17 18 19 20 21 22 23 24 25 26 27 28 29 30 31 32 33 34 35 36 37 38 39 40 41 42 43 44 45 46 47 48 49 50
000
ASUS43 KIWX 271200
RWRIWX

KIWX WEATHER ROUNDUP
NATIONAL WEATHER SERVICE NORTHERN INDIANA
800 AM EDT MON APR 27 2015

NOTE: "FAIR" INDICATES FEW OR NO CLOUDS BELOW 12,000 FEET WITH NO
SIGNIFICANT WEATHER AND/OR OBSTRUCTIONS TO VISIBILITY.

* THESE STATIONS ARE NOT UNDER NWS QUALITY CONTROL. THEY ALSO MAY NOT
  REPORT WEATHER SUCH AS PRECIPITATION OR FOG.

INZ001>027-271300-
NORTHERN INDIANA

CITY           SKY/WX    TMP DP  RH WIND       PRES   REMARKS
GARY*          SUNNY     43  30  61 N17G29    30.07R
KNOX*          SUNNY     37  28  70 N8        30.02R
SOUTH BEND     FAIR      40  33  76 N10       30.01R
6HR MIN TEMP:  36; 6HR MAX TEMP:  40;

ELKHART*       SUNNY     39  30  70 N7        30.00R
GOSHEN         SUNNY     40  32  73 N8        29.98R
6HR MIN TEMP:  35; 6HR MAX TEMP:  40;

WARSAW*        SUNNY     37  32  81 N5        29.98R
ANGOLA*        SUNNY     39  32  75 N6        29.97R
FORT WAYNE     MOSUNNY   40  33  76 N6        29.97R
6HR MIN TEMP:  35; 6HR MAX TEMP:  45;

PERU/GRISSOM   SUNNY     40  33  78 W6        30.00R
6HR MIN TEMP:  37; 6HR MAX TEMP:  40;


$$
INZ028>050-271300-
CENTRAL INDIANA

CITY           SKY/WX    TMP DP  RH WIND       PRES   REMARKS
LAFAYETTE      SUNNY     36  33  89 NW7       30.05R
6HR MIN TEMP:  33; 6HR MAX TEMP:  37;

KOKOMO*        SUNNY     39  30  70 W7        30.01R
6HR MIN TEMP:  36; 6HR MAX TEMP:  39;

MUNCIE*        SUNNY     38  32  79 W7        29.98R
6HR MIN TEMP:  35; 6HR MAX TEMP:  45;

INDIANAPOLIS   SUNNY     39  32  76 NW8       30.00R
6HR MIN TEMP:  35; 6HR MAX TEMP:  41;


$$
MIZ043>046-050>051-056>058-064>065-071>073-077>080-271300-
SOUTHWEST LOWER MICHIGAN

CITY           SKY/WX    TMP DP  RH WIND       PRES   REMARKS
BATTLE CREEK   PTSUNNY   40  31  70 N8        29.98S
6HR MIN TEMP:  39; 6HR MAX TEMP:  42;

BENTON HARBOR  SUNNY     38  34  85 N9        30.02R
6HR MIN TEMP:  35; 6HR MAX TEMP:  39;

COLDWATER*     SUNNY     40  32  72 N6        29.96S
6HR MIN TEMP:  37; 6HR MAX TEMP:  42;

HILLSDALE*     SUNNY     40  34  79 N8        29.94S
6HR MIN TEMP:  35; 6HR MAX TEMP:  43;

HOLLAND        CLOUDY    42  33  70 VRB7      30.02S
6HR MIN TEMP:  40; 6HR MAX TEMP:  44;

GRAND RAPIDS   PTSUNNY   41  31  67 N10       30.01R
6HR MIN TEMP:  39; 6HR MAX TEMP:  42;

KALAMAZOO      SUNNY     41  32  70 N10       29.99S
6HR MIN TEMP:  36; 6HR MAX TEMP:  41;

STURGIS*       SUNNY     39  30  70 N9        29.97R
THREE RIVERS*  FAIR      40  32  74 N6        29.98S
6HR MIN TEMP:  37; 6HR MAX TEMP:  42;


$$
OHZ001>008-015>018-024>025-271300-
NORTHWEST OHIO

CITY           SKY/WX    TMP DP  RH WIND       PRES   REMARKS
DEFIANCE       PTSUNNY   41  35  79 NW5       29.95S
6HR MIN TEMP:  36; 6HR MAX TEMP:  48;

FINDLAY        CLOUDY    41  35  79 W5        29.92R
6HR MIN TEMP:  35; 6HR MAX TEMP:  46;

TOLEDO EXPRESS PTSUNNY   42  33  70 NW7       29.94R
6HR MIN TEMP:  37; 6HR MAX TEMP:  44;

TOLEDO METCALF PTSUNNY   44  32  62 N8        29.94S
6HR MIN TEMP:  38; 6HR MAX TEMP:  44;

LIMA           PTSUNNY   38  32  79 CALM      29.93R
6HR MIN TEMP:  36; 6HR MAX TEMP:  46;


$$
AND FOR LAKE MICHIGAN COASTAL AND OPEN LAKE BUOY OBSERVATIONS

STATION/POSITION TEMP    WIND        PRES    VSBY  WAVE
                 AIR SEA DIR/SP/G                  HT/PER
                 (F)     (DEG/KT/KT) (MB)    (MI)  (FT/S)
CALUMET HARBOR    42     340/ 11/ 19   N/A
MICHIGAN CITY     40     360/ 22/ 26   N/A
BURNS HARBOR      41     360/ 15/ 22 1017.9R
SAINT JOSEPH      40     350/ 16/ 21 1016.3S
MICHIGAN CITY     40 45   10/ 17/ 23   N/A           5/ 5

$$
&&



USA.gov is the U.S. government's official web portal to all federal, state and local government web resources and services.